Location: *
(41.7492°S, 135.4150°W)
Time: 03:11:16
(UTC+00:00)

AO-27 - Pass Details

Date: 30 June 2022
Orbit: 786 x 796 km, 98.9° (Epoch: 14 August)

Event Time Altitude Azimuth Distance (km) Brightness Sun altitude
Rises 15:15:40 0° 39° (NE) 3,298 11.9 -13.4°
Reaches altitude 10° 15:18:08 10° 47° (NE) 2,376 11.3 -12.9°
Maximum altitude 15:22:55 37° 112° (ESE) 1,239 9.1 -12.1°
Drops below altitude 10° 15:27:44 10° 178° (S) 2,399 10.0 -11.2°
Sets 15:30:14 0° 185° (S) 3,335 10.6 -10.8°
